Weather History for Rome Ciampino, Italy

Change the Weather History Date:

Sunday, January 20, 2013

  Actual Average Record
Temperature  
Mean Temperature 55 °F -  
Max Temperature 59 °F 54 °F 62 °F (2007)
Min Temperature 51 °F 38 °F 26 °F (2000)
Degree Days  
Heating Degree Days 10    
Growing Degree Days 5 (Base 50)    
Moisture  
Dew Point 53 °F    
Average Humidity 91    
Maximum Humidity 100    
Minimum Humidity 77    
Precipitation  
Precipitation 0.00 in 0.13 in - ()
Sea Level Pressure  
Sea Level Pressure 29.45 in    
Wind  
Wind Speed 18 mph ()    
Max Wind Speed 25 mph    
Max Gust Speed 39 mph    
Visibility 4.9 miles    
Events Rain    
Averages and records for this station are not official NWS values.
T = Trace of Precipitation, MM = Missing Value Source: Averaged Metar Reports

Daily Weather History Graph

Daily Weather History Graph

Search for Another Location

Airport:

Trip Planner

Search our weather history database for the weather conditions in past years. The results will help you decide how hot, cold, wet, or windy it might be!

Date:

Astronomy

Jan. 20, 2013 Rise Set
Actual Time 7:31 AM CET 5:09 PM CET
Civil Twilight 7:01 AM CET 5:40 PM CET
Nautical Twilight 6:27 AM CET 6:14 PM CET
Astronomical Twilight 5:54 AM CET 6:47 PM CET
Moon 12:01 PM CET (1/20) 1:47 AM CET (1/20)
Length of Visible Light 10h 38m
Length of Day
9h 37m
Waxing Gibbous, 64% of the Moon is Illuminated
Jan 20
Waxing Gibbous
Jan 27
Full
Feb 3
Last Quarter
Feb 10
New
Feb 17
First Quarter

Hourly Weather History & Observations

Time (CET) Temp. Dew Point Humidity Pressure Visibility Wind Dir Wind Speed Gust Speed Precip Events Conditions
12:15 AM 55.4 °F 53.6 °F 94% 29.47 in 6.2 mi SSE 20.7 mph - N/A Rain Light Rain
12:45 AM 55.4 °F 53.6 °F 94% 29.50 in 6.2 mi SSE 19.6 mph - N/A Rain Light Rain
1:15 AM 55.4 °F 53.6 °F 94% 29.47 in 6.2 mi SSE 18.4 mph - N/A Rain Light Rain
1:45 AM 55.4 °F 53.6 °F 94% 29.47 in 6.2 mi SSE 18.4 mph - N/A Rain Light Rain
2:15 AM 55.4 °F 53.6 °F 94% 29.44 in 6.2 mi SSE 23.0 mph - N/A Rain Light Rain
2:45 AM 55.4 °F 53.6 °F 94% 29.44 in 6.2 mi SSE 23.0 mph - N/A   Scattered Clouds
3:15 AM 57.2 °F 55.4 °F 94% 29.44 in 6.2 mi SSE 24.2 mph 39.1 mph N/A Rain Light Rain
3:45 AM 57.2 °F 53.6 °F 88% 29.44 in 6.2 mi SSE 25.3 mph 38.0 mph N/A Rain Light Rain
4:15 AM 55.4 °F 53.6 °F 94% 29.44 in 6.2 mi SSE 23.0 mph - N/A Rain Light Rain
4:45 AM 55.4 °F 53.6 °F 94% 29.44 in 6.2 mi SSE 23.0 mph 34.5 mph N/A Rain Light Rain
5:15 AM 57.2 °F 53.6 °F 88% 29.42 in 6.2 mi SSE 23.0 mph - N/A Rain Light Rain
5:45 AM 57.2 °F 53.6 °F 88% 29.42 in 6.2 mi SSE 21.9 mph - N/A Rain Light Rain
6:15 AM 59.0 °F 55.4 °F 88% 29.42 in 6.2 mi SSE 24.2 mph 39.1 mph N/A Rain Light Rain
6:45 AM 57.2 °F 53.6 °F 88% 29.44 in 6.2 mi SSE 21.9 mph - N/A Rain Light Rain
7:15 AM 57.2 °F 53.6 °F 88% 29.44 in 5.0 mi SSE 20.7 mph - N/A Rain Light Rain
7:45 AM 57.2 °F 53.6 °F 88% 29.44 in 5.0 mi SE 19.6 mph - N/A Rain Light Rain
8:15 AM 57.2 °F 53.6 °F 88% 29.44 in 4.3 mi SSE 20.7 mph - N/A Rain Light Rain
8:45 AM 57.2 °F 55.4 °F 94% 29.44 in 4.3 mi SE 19.6 mph - N/A Rain Light Rain
9:15 AM 57.2 °F 55.4 °F 94% 29.44 in 3.7 mi SSE 20.7 mph - N/A Rain Light Rain
9:45 AM 59.0 °F 55.4 °F 88% 29.47 in 3.7 mi SSE 18.4 mph - N/A Rain Light Rain
10:15 AM 57.2 °F 55.4 °F 94% 29.47 in 3.1 mi SSE 18.4 mph - N/A Rain Light Rain
10:45 AM 57.2 °F 53.6 °F 88% 29.47 in 3.1 mi SSE 17.3 mph - N/A Rain Light Rain
11:15 AM 57.2 °F 55.4 °F 94% 29.50 in 1.9 mi SSE 17.3 mph - N/A Rain Rain
11:45 AM 57.2 °F 55.4 °F 94% 29.47 in 3.1 mi South 16.1 mph - N/A Rain Rain
12:15 PM 55.4 °F 55.4 °F 100% 29.47 in 3.7 mi South 16.1 mph - N/A Rain Rain
12:45 PM 55.4 °F 55.4 °F 100% 29.47 in 1.9 mi South 12.7 mph - N/A Rain Heavy Rain
1:15 PM 55.4 °F 55.4 °F 100% 29.47 in 3.1 mi South 16.1 mph - N/A Rain Heavy Rain
1:45 PM 55.4 °F 55.4 °F 100% 29.44 in 3.7 mi South 16.1 mph - N/A Rain Rain
2:15 PM 57.2 °F 57.2 °F 100% 29.44 in 4.3 mi SSE 16.1 mph - N/A Rain Rain
2:45 PM 57.2 °F 57.2 °F 100% 29.44 in 4.3 mi SSE 19.6 mph - N/A Rain Rain
3:15 PM 57.2 °F 55.4 °F 94% 29.44 in 4.3 mi South 17.3 mph 28.8 mph N/A Rain Rain
3:45 PM 57.2 °F 53.6 °F 88% 29.44 in 3.7 mi SSE 13.8 mph - N/A Rain Rain
4:15 PM 55.4 °F 55.4 °F 100% 29.44 in 3.7 mi SSE 13.8 mph - N/A Rain Rain
4:45 PM 57.2 °F 53.6 °F 88% 29.44 in 5.0 mi SSE 15.0 mph - N/A   Scattered Clouds
5:15 PM 57.2 °F 51.8 °F 82% 29.44 in 5.6 mi SE 17.3 mph - N/A   Scattered Clouds
5:45 PM 55.4 °F 48.2 °F 77% 29.44 in 6.2 mi SE 19.6 mph - N/A   Scattered Clouds
6:15 PM 55.4 °F 50.0 °F 82% 29.44 in 6.2 mi SSE 21.9 mph - N/A Rain Light Rain
6:45 PM 53.6 °F 50.0 °F 88% 29.44 in 5.0 mi SE 19.6 mph - N/A Rain Light Rain
7:15 PM 53.6 °F 50.0 °F 88% 29.44 in 5.0 mi SE 20.7 mph - N/A Rain Light Rain
7:45 PM 53.6 °F 50.0 °F 88% 29.44 in 5.0 mi SE 18.4 mph - N/A Rain Light Rain
8:15 PM 53.6 °F 50.0 °F 88% 29.44 in 5.0 mi SSE 20.7 mph - N/A Rain Light Rain
8:45 PM 53.6 °F 50.0 °F 88% 29.44 in 5.0 mi SE 20.7 mph - N/A Rain Light Rain
9:15 PM 53.6 °F 50.0 °F 88% 29.44 in 5.0 mi SE 18.4 mph - N/A Rain Light Rain
9:45 PM 51.8 °F 50.0 °F 94% 29.44 in 5.0 mi SE 15.0 mph - N/A Rain Light Rain
10:15 PM 51.8 °F 50.0 °F 94% 29.44 in 5.0 mi SE 18.4 mph - N/A Rain Light Rain
10:45 PM 51.8 °F 48.2 °F 88% 29.44 in 5.0 mi SE 13.8 mph - N/A Rain Light Rain
11:15 PM 51.8 °F 48.2 °F 88% 29.44 in 5.0 mi SE 15.0 mph - N/A Rain Light Rain
11:45 PM 51.8 °F 48.2 °F 88% 29.42 in 5.0 mi SSE 11.5 mph - N/A Rain Light Rain